Location: Calvatone
(45.1167°N, 10.4333°E)
Time: 10:24:35
(UTC+00:00)

METEOR M2 - Pass Details

Date: 07 December 2023
Orbit: 818 x 826 km, 98.4° (Epoch: 24 February)

Event Time Altitude Azimuth Distance (km) Brightness Sun altitude
Rises 04:17:46 0° 24° (NNE) 3,369 ? -24.7°
Reaches altitude 10° 04:20:28 10° 36° (NE) 2,430 ? -24.2°
Maximum altitude 04:25:02 28° 94° (E) 1,513 ? -23.4°
Drops below altitude 10° 04:29:33 10° 152° (SSE) 2,411 ? -22.6°
Sets 04:32:13 0° 164° (SSE) 3,337 ? -22.2°
